TimeCST,TemperatureF,Dew PointF,Humidity,Sea Level PressureIn,VisibilityMPH,Wind Direction,Wind SpeedMPH,Gust SpeedMPH,PrecipitationIn,Events,Conditions,WindDirDegrees,DateUTC
12:15 AM,41.0,28.4,61,30.11,10.0,NNE,3.5,-,N/A,,Clear,20,2013-02-06 06:15:00
12:35 AM,39.2,28.4,65,30.12,10.0,NE,3.5,-,N/A,,Clear,40,2013-02-06 06:35:00
12:55 AM,35.6,28.4,75,30.12,10.0,ENE,3.5,-,N/A,,Clear,60,2013-02-06 06:55:00
1:15 AM,37.4,28.4,70,30.12,10.0,NE,4.6,-,N/A,,Clear,50,2013-02-06 07:15:00
1:35 AM,35.6,28.4,75,30.12,10.0,ENE,3.5,-,N/A,,Clear,70,2013-02-06 07:35:00
1:55 AM,33.8,28.4,81,30.13,10.0,ESE,4.6,-,N/A,,Clear,120,2013-02-06 07:55:00
2:15 AM,35.6,28.4,75,30.12,10.0,ENE,4.6,-,N/A,,Clear,70,2013-02-06 08:15:00
2:35 AM,33.8,28.4,81,30.13,10.0,East,4.6,-,N/A,,Clear,90,2013-02-06 08:35:00
2:55 AM,33.8,28.4,81,30.12,10.0,East,5.8,-,N/A,,Clear,80,2013-02-06 08:55:00
3:15 AM,33.8,28.4,81,30.13,10.0,ESE,6.9,-,N/A,,Clear,120,2013-02-06 09:15:00
3:35 AM,32.0,28.4,87,30.12,10.0,ESE,4.6,-,N/A,,Clear,120,2013-02-06 09:35:00
3:55 AM,32.0,28.4,87,30.13,10.0,ESE,4.6,-,N/A,,Clear,110,2013-02-06 09:55:00
4:15 AM,33.8,28.4,81,30.13,10.0,East,4.6,-,N/A,,Clear,90,2013-02-06 10:15:00
4:35 AM,32.0,28.4,87,30.14,10.0,ESE,4.6,-,N/A,,Clear,110,2013-02-06 10:35:00
4:55 AM,33.8,28.4,81,30.14,10.0,SE,8.1,-,N/A,,Clear,130,2013-02-06 10:55:00
5:15 AM,32.0,28.4,87,30.14,10.0,ESE,6.9,-,N/A,,Clear,120,2013-02-06 11:15:00
5:35 AM,32.0,28.4,87,30.14,10.0,ESE,5.8,-,N/A,,Clear,120,2013-02-06 11:35:00
5:55 AM,32.0,28.4,87,30.13,10.0,ESE,4.6,-,N/A,,Clear,120,2013-02-06 11:55:00
6:15 AM,32.0,30.2,93,30.13,10.0,East,6.9,-,N/A,,Clear,90,2013-02-06 12:15:00
6:35 AM,32.0,28.4,87,30.13,10.0,ESE,9.2,-,N/A,,Clear,120,2013-02-06 12:35:00
6:55 AM,32.0,28.4,87,30.14,10.0,SE,8.1,-,N/A,,Clear,130,2013-02-06 12:55:00
7:35 AM,33.8,30.2,87,30.16,10.0,ESE,6.9,-,N/A,,Clear,120,2013-02-06 13:35:00
7:55 AM,33.8,30.2,87,30.16,10.0,SE,10.4,-,N/A,,Clear,130,2013-02-06 13:55:00
8:15 AM,35.6,30.2,81,30.17,10.0,SE,10.4,-,N/A,,Clear,130,2013-02-06 14:15:00
8:35 AM,37.4,30.2,75,30.16,10.0,ESE,9.2,-,N/A,,Clear,120,2013-02-06 14:35:00
8:55 AM,41.0,32.0,70,30.16,10.0,ESE,9.2,-,N/A,,Clear,120,2013-02-06 14:55:00
9:35 AM,44.6,32.0,61,30.16,10.0,SE,11.5,-,N/A,,Clear,140,2013-02-06 15:35:00
9:55 AM,44.6,32.0,61,30.16,10.0,SE,11.5,-,N/A,,Clear,130,2013-02-06 15:55:00
10:35 AM,46.4,32.0,57,30.16,10.0,SE,12.7,-,N/A,,Clear,140,2013-02-06 16:35:00
10:55 AM,50.0,32.0,50,30.15,10.0,ESE,13.8,-,N/A,,Clear,120,2013-02-06 16:55:00
11:15 AM,50.0,32.0,50,30.14,10.0,ESE,10.4,-,N/A,,Clear,120,2013-02-06 17:15:00
11:35 AM,51.8,32.0,47,30.12,10.0,SE,10.4,-,N/A,,Clear,130,2013-02-06 17:35:00
11:55 AM,53.6,32.0,44,30.11,10.0,ESE,6.9,-,N/A,,Clear,120,2013-02-06 17:55:00
12:15 PM,53.6,32.0,44,30.10,10.0,SE,11.5,16.1,N/A,,Clear,130,2013-02-06 18:15:00
12:35 PM,55.4,30.2,38,30.10,10.0,SE,16.1,19.6,N/A,,Clear,140,2013-02-06 18:35:00
12:55 PM,55.4,30.2,38,30.09,10.0,SE,13.8,17.3,N/A,,Clear,140,2013-02-06 18:55:00
1:15 PM,55.4,30.2,38,30.07,10.0,SE,10.4,-,N/A,,Clear,140,2013-02-06 19:15:00
1:35 PM,57.2,30.2,36,30.06,10.0,SE,15.0,-,N/A,,Clear,130,2013-02-06 19:35:00
1:55 PM,59.0,30.2,34,30.04,10.0,ESE,13.8,17.3,N/A,,Clear,120,2013-02-06 19:55:00
2:15 PM,59.0,30.2,34,30.03,10.0,SE,13.8,-,N/A,,Clear,130,2013-02-06 20:15:00
2:35 PM,59.0,30.2,34,30.02,10.0,SSE,13.8,-,N/A,,Clear,150,2013-02-06 20:35:00
2:55 PM,57.2,30.2,36,30.03,10.0,SSE,12.7,19.6,N/A,,Clear,150,2013-02-06 20:55:00
3:15 PM,59.0,30.2,34,30.02,10.0,SSE,19.6,-,N/A,,Clear,150,2013-02-06 21:15:00
3:35 PM,59.0,30.2,34,30.02,10.0,SE,15.0,19.6,N/A,,Clear,130,2013-02-06 21:35:00
3:55 PM,59.0,30.2,34,30.01,10.0,SE,13.8,20.7,N/A,,Clear,130,2013-02-06 21:55:00
4:15 PM,57.2,32.0,38,30.01,10.0,SE,12.7,17.3,N/A,,Clear,140,2013-02-06 22:15:00
4:35 PM,55.4,32.0,41,30.01,10.0,SE,12.7,-,N/A,,Scattered Clouds,140,2013-02-06 22:35:00
4:55 PM,55.4,32.0,41,30.00,10.0,SE,16.1,20.7,N/A,,Scattered Clouds,140,2013-02-06 22:55:00
5:15 PM,53.6,32.0,44,30.00,10.0,SE,10.4,-,N/A,,Clear,130,2013-02-06 23:15:00
5:35 PM,51.8,32.0,47,30.00,10.0,ESE,10.4,-,N/A,,Clear,120,2013-02-06 23:35:00
5:55 PM,51.8,32.0,47,30.00,10.0,SE,9.2,-,N/A,,Clear,130,2013-02-06 23:55:00
6:15 PM,51.8,32.0,47,30.00,10.0,SE,8.1,-,N/A,,Clear,130,2013-02-07 00:15:00
6:35 PM,51.8,32.0,47,30.01,10.0,SE,12.7,19.6,N/A,,Scattered Clouds,130,2013-02-07 00:35:00
6:55 PM,51.8,32.0,47,30.01,10.0,SE,15.0,20.7,N/A,,Overcast,130,2013-02-07 00:55:00
7:15 PM,51.8,32.0,47,30.01,10.0,SE,13.8,-,N/A,,Scattered Clouds,130,2013-02-07 01:15:00
7:35 PM,50.0,32.0,50,30.00,10.0,SE,15.0,20.7,N/A,,Scattered Clouds,130,2013-02-07 01:35:00
7:55 PM,50.0,32.0,50,30.00,10.0,SE,18.4,26.5,N/A,,Clear,130,2013-02-07 01:55:00
8:15 PM,50.0,32.0,50,30.00,10.0,SE,16.1,24.2,N/A,,Clear,130,2013-02-07 02:15:00
8:35 PM,50.0,32.0,50,30.00,10.0,SE,15.0,21.9,N/A,,Scattered Clouds,130,2013-02-07 02:35:00
8:55 PM,50.0,32.0,50,30.00,10.0,SE,17.3,25.3,N/A,,Mostly Cloudy,130,2013-02-07 02:55:00
9:15 PM,48.2,32.0,54,30.00,10.0,SE,16.1,24.2,N/A,,Mostly Cloudy,130,2013-02-07 03:15:00
9:35 PM,46.4,32.0,57,30.00,10.0,SE,15.0,21.9,N/A,,Mostly Cloudy,130,2013-02-07 03:35:00
9:55 PM,46.4,32.0,57,30.00,10.0,SE,15.0,23.0,N/A,,Clear,130,2013-02-07 03:55:00
10:15 PM,46.4,32.0,57,30.00,10.0,SE,13.8,17.3,N/A,,Clear,130,2013-02-07 04:15:00
10:35 PM,46.4,32.0,57,30.00,10.0,SE,15.0,18.4,N/A,,Clear,140,2013-02-07 04:35:00
10:55 PM,44.6,32.0,61,30.00,10.0,SE,13.8,-,N/A,,Scattered Clouds,130,2013-02-07 04:55:00
11:15 PM,44.6,32.0,61,30.00,10.0,SE,12.7,19.6,N/A,,Scattered Clouds,140,2013-02-07 05:15:00
11:35 PM,44.6,32.0,61,30.00,10.0,SE,12.7,-,N/A,,Mostly Cloudy,130,2013-02-07 05:35:00
11:55 PM,44.6,33.8,66,29.99,10.0,SE,11.5,17.3,N/A,,Overcast,130,2013-02-07 05:55:00